#Datum;Uhrzeit;WR;Pac;DaySum;Status;WR;Pac;DaySum;Status;Pdc1;Udc;Temp;WR;Pac;DaySum;Status;Pdc1;Udc;Temp;WR;Pac;DaySum;Status;Pdc1;Udc;Temp;WR;Pac;DaySum;Status;Pdc1;Pdc2;Udc1;Udc2;Temp;WR;Pac;DaySum;Status;Pdc1;Pdc2;Udc1;Udc2;Temp;WR;Pac;DaySum;Status;Pdc1;Udc;Temp;WR;Pac;DaySum;Status;Pdc1;Udc;Temp;WR;Pac;DaySum;Status;Pdc1;Udc;Temp
22.10.19;23:55:00;1;212;11847;0;2;0;3558;0;0;0;0;3;0;2155;0;0;0;0;4;0;3006;0;0;0;0;5;0;7667;0;0;0;0;0;0;6;0;5435;0;0;0;0;0;0;7;0;3702;0;0;0;0;8;0;3727;0;0;0;0;9;0;1940;0;0;0;0
22.10.19;23:50:00;1;242;11829;0;2;0;3558;0;0;0;0;3;0;2155;0;0;0;0;4;0;3006;0;0;0;0;5;0;7667;0;0;0;0;0;0;6;0;5435;0;0;0;0;0;0;7;0;3702;0;0;0;0;8;0;3727;0;0;0;0;9;0;1940;0;0;0;0
22.10.19;23:45:00;1;257;11809;0;2;0;3558;0;0;0;0;3;0;2155;0;0;0;0;4;0;3006;0;0;0;0;5;0;7667;0;0;0;0;0;0;6;0;5435;0;0;0;0;0;0;7;0;3702;0;0;0;0;8;0;3727;0;0;0;0;9;0;1940;0;0;0;0
22.10.19;23:40:00;1;256;11787;0;2;0;3558;0;0;0;0;3;0;2155;0;0;0;0;4;0;3006;0;0;0;0;5;0;7667;0;0;0;0;0;0;6;0;5435;0;0;0;0;0;0;7;0;3702;0;0;0;0;8;0;3727;0;0;0;0;9;0;1940;0;0;0;0
22.10.19;23:35:00;1;257;11765;0;2;0;3558;0;0;0;0;3;0;2155;0;0;0;0;4;0;3006;0;0;0;0;5;0;7667;0;0;0;0;0;0;6;0;5435;0;0;0;0;0;0;7;0;3702;0;0;0;0;8;0;3727;0;0;0;0;9;0;1940;0;0;0;0
22.10.19;23:30:00;1;259;11744;0;2;0;3558;0;0;0;0;3;0;2155;0;0;0;0;4;0;3006;0;0;0;0;5;0;7667;0;0;0;0;0;0;6;0;5435;0;0;0;0;0;0;7;0;3702;0;0;0;0;8;0;3727;0;0;0;0;9;0;1940;0;0;0;0
22.10.19;23:25:00;1;228;11722;0;2;0;3558;0;0;0;0;3;0;2155;0;0;0;0;4;0;3006;0;0;0;0;5;0;7667;0;0;0;0;0;0;6;0;5435;0;0;0;0;0;0;7;0;3702;0;0;0;0;8;0;3727;0;0;0;0;9;0;1940;0;0;0;0
22.10.19;23:20:00;1;271;11703;0;2;0;3558;0;0;0;0;3;0;2155;0;0;0;0;4;0;3006;0;0;0;0;5;0;7667;0;0;0;0;0;0;6;0;5435;0;0;0;0;0;0;7;0;3702;0;0;0;0;8;0;3727;0;0;0;0;9;0;1940;0;0;0;0
22.10.19;23:15:00;1;214;11680;0;2;0;3558;0;0;0;0;3;0;2155;0;0;0;0;4;0;3006;0;0;0;0;5;0;7667;0;0;0;0;0;0;6;0;5435;0;0;0;0;0;0;7;0;3702;0;0;0;0;8;0;3727;0;0;0;0;9;0;1940;0;0;0;0
22.10.19;23:10:00;1;214;11662;0;2;0;3558;0;0;0;0;3;0;2155;0;0;0;0;4;0;3006;0;0;0;0;5;0;7667;0;0;0;0;0;0;6;0;5435;0;0;0;0;0;0;7;0;3702;0;0;0;0;8;0;3727;0;0;0;0;9;0;1940;0;0;0;0
22.10.19;23:05:00;1;214;11644;0;2;0;3558;0;0;0;0;3;0;2155;0;0;0;0;4;0;3006;0;0;0;0;5;0;7667;0;0;0;0;0;0;6;0;5435;0;0;0;0;0;0;7;0;3702;0;0;0;0;8;0;3727;0;0;0;0;9;0;1940;0;0;0;0
22.10.19;23:00:00;1;215;11627;0;2;0;3558;0;0;0;0;3;0;2155;0;0;0;0;4;0;3006;0;0;0;0;5;0;7667;0;0;0;0;0;0;6;0;5435;0;0;0;0;0;0;7;0;3702;0;0;0;0;8;0;3727;0;0;0;0;9;0;1940;0;0;0;0
22.10.19;22:55:00;1;235;11608;0;2;0;3558;0;0;0;0;3;0;2155;0;0;0;0;4;0;3006;0;0;0;0;5;0;7667;2;0;0;0;0;0;6;0;5435;2;0;0;0;0;0;7;0;3702;0;0;0;0;8;0;3727;0;0;0;0;9;0;1940;0;0;0;0
22.10.19;22:50:00;1;277;11588;0;2;0;3558;0;0;0;0;3;0;2155;0;0;0;0;4;0;3006;0;0;0;0;5;0;7667;2;0;0;0;0;0;6;0;5435;2;0;0;0;0;0;7;0;3702;0;0;0;0;8;0;3727;0;0;0;0;9;0;1940;0;0;0;0
22.10.19;22:45:00;1;260;11564;0;2;0;3558;0;0;0;0;3;0;2155;0;0;0;0;4;0;3006;0;0;0;0;5;0;7667;2;0;0;0;0;0;6;0;5435;2;0;0;0;0;0;7;0;3702;0;0;0;0;8;0;3727;0;0;0;0;9;0;1940;0;0;0;0
22.10.19;22:40:00;1;313;11542;0;2;0;3558;0;0;0;0;3;0;2155;0;0;0;0;4;0;3006;0;0;0;0;5;0;7667;2;0;0;0;0;0;6;0;5435;2;0;0;0;0;0;7;0;3702;0;0;0;0;8;0;3727;0;0;0;0;9;0;1940;0;0;0;0
22.10.19;22:35:00;1;334;11516;0;2;0;3558;0;0;0;0;3;0;2155;0;0;0;0;4;0;3006;0;0;0;0;5;0;7667;2;0;0;0;0;0;6;0;5435;2;0;0;0;0;0;7;0;3702;0;0;0;0;8;0;3727;0;0;0;0;9;0;1940;0;0;0;0
22.10.19;22:30:00;1;318;11488;0;2;0;3558;0;0;0;0;3;0;2155;0;0;0;0;4;0;3006;0;0;0;0;5;0;7667;2;0;0;0;0;0;6;0;5435;2;0;0;0;0;0;7;0;3702;0;0;0;0;8;0;3727;0;0;0;0;9;0;1940;0;0;0;0
22.10.19;22:25:00;1;437;11461;0;2;0;3558;0;0;0;0;3;0;2155;0;0;0;0;4;0;3006;0;0;0;0;5;0;7667;2;0;0;0;0;0;6;0;5435;2;0;0;0;0;0;7;0;3702;0;0;0;0;8;0;3727;0;0;0;0;9;0;1940;0;0;0;0
22.10.19;22:20:00;1;599;11423;0;2;0;3558;0;0;0;0;3;0;2155;0;0;0;0;4;0;3006;0;0;0;0;5;0;7667;2;0;0;0;0;0;6;0;5435;2;0;0;0;0;0;7;0;3702;0;0;0;0;8;0;3727;0;0;0;0;9;0;1940;0;0;0;0
22.10.19;22:15:00;1;1007;11361;0;2;0;3558;0;0;0;0;3;0;2155;0;0;0;0;4;0;3006;0;0;0;0;5;0;7667;2;0;0;0;0;0;6;0;5435;2;0;0;0;0;0;7;0;3702;0;0;0;0;8;0;3727;0;0;0;0;9;0;1940;0;0;0;0
22.10.19;22:10:00;1;474;11296;0;2;0;3558;0;0;0;0;3;0;2155;0;0;0;0;4;0;3006;0;0;0;0;5;0;7667;2;0;0;0;0;0;6;0;5435;2;0;0;0;0;0;7;0;3702;0;0;0;0;8;0;3727;0;0;0;0;9;0;1940;0;0;0;0
22.10.19;22:05:00;1;478;11257;0;2;0;3558;0;0;0;0;3;0;2155;0;0;0;0;4;0;3006;0;0;0;0;5;0;7667;2;0;0;0;0;0;6;0;5435;2;0;0;0;0;0;7;0;3702;0;0;0;0;8;0;3727;0;0;0;0;9;0;1940;0;0;0;0
22.10.19;22:00:00;1;553;11216;0;2;0;3558;0;0;0;0;3;0;2155;0;0;0;0;4;0;3006;0;0;0;0;5;0;7667;2;0;0;0;0;0;6;0;5435;2;0;0;0;0;0;7;0;3702;0;0;0;0;8;0;3727;0;0;0;0;9;0;1940;0;0;0;0
22.10.19;21:55:00;1;479;11170;0;2;0;3558;0;0;0;0;3;0;2155;0;0;0;0;4;0;3006;0;0;0;0;5;0;7667;2;0;0;0;0;0;6;0;5435;2;0;0;0;0;0;7;0;3702;0;0;0;0;8;0;3727;0;0;0;0;9;0;1940;0;0;0;0
22.10.19;21:50:00;1;411;11130;0;2;0;3558;0;0;0;0;3;0;2155;0;0;0;0;4;0;3006;0;0;0;0;5;0;7667;2;0;0;0;0;0;6;0;5435;2;0;0;0;0;0;7;0;3702;0;0;0;0;8;0;3727;0;0;0;0;9;0;1940;0;0;0;0
22.10.19;21:45:00;1;435;11096;0;2;0;3558;0;0;0;0;3;0;2155;0;0;0;0;4;0;3006;0;0;0;0;5;0;7667;2;0;0;0;0;0;6;0;5435;2;0;0;0;0;0;7;0;3702;0;0;0;0;8;0;3727;0;0;0;0;9;0;1940;0;0;0;0
22.10.19;21:40:00;1;369;11062;0;2;0;3558;0;0;0;0;3;0;2155;0;0;0;0;4;0;3006;0;0;0;0;5;0;7667;2;0;0;0;0;0;6;0;5435;2;0;0;0;0;0;7;0;3702;0;0;0;0;8;0;3727;0;0;0;0;9;0;1940;0;0;0;0
22.10.19;21:35:00;1;364;11032;0;2;0;3558;0;0;0;0;3;0;2155;0;0;0;0;4;0;3006;0;0;0;0;5;0;7667;2;0;0;0;0;0;6;0;5435;2;0;0;0;0;0;7;0;3702;0;0;0;0;8;0;3727;0;0;0;0;9;0;1940;0;0;0;0
22.10.19;21:30:00;1;447;11001;0;2;0;3558;0;0;0;0;3;0;2155;0;0;0;0;4;0;3006;0;0;0;0;5;0;7667;2;0;0;0;0;0;6;0;5435;2;0;0;0;0;0;7;0;3702;0;0;0;0;8;0;3727;0;0;0;0;9;0;1940;0;0;0;0
22.10.19;21:25:00;1;400;10964;0;2;0;3558;0;0;0;0;3;0;2155;0;0;0;0;4;0;3006;0;0;0;0;5;0;7667;2;0;0;0;0;0;6;0;5435;2;0;0;0;0;0;7;0;3702;0;0;0;0;8;0;3727;0;0;0;0;9;0;1940;0;0;0;0
22.10.19;21:20:00;1;389;10931;0;2;0;3558;0;0;0;0;3;0;2155;0;0;0;0;4;0;3006;0;0;0;0;5;0;7667;2;0;0;0;0;0;6;0;5435;2;0;0;0;0;0;7;0;3702;0;0;0;0;8;0;3727;0;0;0;0;9;0;1940;0;0;0;0
22.10.19;21:15:00;1;411;10898;0;2;0;3558;0;0;0;0;3;0;2155;0;0;0;0;4;0;3006;0;0;0;0;5;0;7667;2;0;0;0;0;0;6;0;5435;2;0;0;0;0;0;7;0;3702;0;0;0;0;8;0;3727;0;0;0;0;9;0;1940;0;0;0;0
22.10.19;21:10:00;1;465;10864;0;2;0;3558;0;0;0;0;3;0;2155;0;0;0;0;4;0;3006;0;0;0;0;5;0;7667;2;0;0;0;0;0;6;0;5435;2;0;0;0;0;0;7;0;3702;0;0;0;0;8;0;3727;0;0;0;0;9;0;1940;0;0;0;0
22.10.19;21:05:00;1;591;10825;0;2;0;3558;0;0;0;0;3;0;2155;0;0;0;0;4;0;3006;0;0;0;0;5;0;7667;2;0;0;0;0;0;6;0;5435;2;0;0;0;0;0;7;0;3702;0;0;0;0;8;0;3727;0;0;0;0;9;0;1940;0;0;0;0
22.10.19;21:00:00;1;642;10774;0;2;0;3558;0;0;0;0;3;0;2155;0;0;0;0;4;0;3006;0;0;0;0;5;0;7667;2;0;0;0;0;0;6;0;5435;2;0;0;0;0;0;7;0;3702;0;0;0;0;8;0;3727;0;0;0;0;9;0;1940;0;0;0;0
22.10.19;20:55:00;1;547;10720;0;2;0;3558;0;0;0;0;3;0;2155;0;0;0;0;4;0;3006;0;0;0;0;5;0;7667;2;0;0;0;0;0;6;0;5435;2;0;0;0;0;0;7;0;3702;0;0;0;0;8;0;3727;0;0;0;0;9;0;1940;0;0;0;0
22.10.19;20:50:00;1;456;10677;0;2;0;3558;0;0;0;0;3;0;2155;0;0;0;0;4;0;3006;0;0;0;0;5;0;7667;2;0;0;0;0;0;6;0;5435;2;0;0;0;0;0;7;0;3702;0;0;0;0;8;0;3727;0;0;0;0;9;0;1940;0;0;0;0
22.10.19;20:45:00;1;522;10639;0;2;0;3558;0;0;0;0;3;0;2155;0;0;0;0;4;0;3006;0;0;0;0;5;0;7667;2;0;0;0;0;0;6;0;5435;2;0;0;0;0;0;7;0;3702;0;0;0;0;8;0;3727;0;0;0;0;9;0;1940;0;0;0;0
22.10.19;20:40:00;1;520;10599;0;2;0;3558;0;0;0;0;3;0;2155;0;0;0;0;4;0;3006;0;0;0;0;5;0;7667;2;0;0;0;0;0;6;0;5435;2;0;0;0;0;0;7;0;3702;0;0;0;0;8;0;3727;0;0;0;0;9;0;1940;0;0;0;0
22.10.19;20:35:00;1;618;10554;0;2;0;3558;0;0;0;0;3;0;2155;0;0;0;0;4;0;3006;0;0;0;0;5;0;7667;2;0;0;0;0;0;6;0;5435;2;0;0;0;0;0;7;0;3702;0;0;0;0;8;0;3727;0;0;0;0;9;0;1940;0;0;0;0
22.10.19;20:30:00;1;584;10500;0;2;0;3558;0;0;0;0;3;0;2155;0;0;0;0;4;0;3006;0;0;0;0;5;0;7667;2;0;0;0;0;0;6;0;5435;2;0;0;0;0;0;7;0;3702;0;0;0;0;8;0;3727;0;0;0;0;9;0;1940;0;0;0;0
22.10.19;20:25:00;1;637;10450;0;2;0;3558;0;0;0;0;3;0;2155;0;0;0;0;4;0;3006;0;0;0;0;5;0;7667;2;0;0;0;0;0;6;0;5435;2;0;0;0;0;0;7;0;3702;0;0;0;0;8;0;3727;0;0;0;0;9;0;1940;0;0;0;0
22.10.19;20:20:00;1;1219;10392;0;2;0;3558;0;0;0;0;3;0;2155;0;0;0;0;4;0;3006;0;0;0;0;5;0;7667;2;0;0;0;0;0;6;0;5435;2;0;0;0;0;0;7;0;3702;0;0;0;0;8;0;3727;0;0;0;0;9;0;1940;0;0;0;0
22.10.19;20:15:00;1;1163;10291;0;2;0;3558;0;0;0;0;3;0;2155;0;0;0;0;4;0;3006;0;0;0;0;5;0;7667;2;0;0;0;0;0;6;0;5435;2;0;0;0;0;0;7;0;3702;0;0;0;0;8;0;3727;0;0;0;0;9;0;1940;0;0;0;0
22.10.19;20:10:00;1;1244;10194;0;2;0;3558;0;0;0;0;3;0;2155;0;0;0;0;4;0;3006;0;0;0;0;5;0;7667;2;0;0;0;0;0;6;0;5435;2;0;0;0;0;0;7;0;3702;0;0;0;0;8;0;3727;0;0;0;0;9;0;1940;0;0;0;0
22.10.19;20:05:00;1;1178;10089;0;2;0;3558;0;0;0;0;3;0;2155;0;0;0;0;4;0;3006;0;0;0;0;5;0;7667;2;0;0;0;0;0;6;0;5435;2;0;0;0;0;0;7;0;3702;0;0;0;0;8;0;3727;0;0;0;0;9;0;1940;0;0;0;0
22.10.19;20:00:00;1;1083;9997;0;2;0;3558;0;0;0;0;3;0;2155;0;0;0;0;4;0;3006;0;0;0;0;5;0;7667;2;0;0;0;0;0;6;0;5435;2;0;0;0;0;0;7;0;3702;0;0;0;0;8;0;3727;0;0;0;0;9;0;1940;0;0;0;0
22.10.19;19:55:00;1;1084;9907;0;2;0;3558;0;0;0;0;3;0;2155;0;0;0;0;4;0;3006;0;0;0;0;5;0;7667;2;0;0;0;0;0;6;0;5435;2;0;0;0;0;0;7;0;3702;0;0;0;0;8;0;3727;0;0;0;0;9;0;1940;0;0;0;0
22.10.19;19:50:00;1;1036;9817;0;2;0;3558;0;0;0;0;3;0;2155;0;0;0;0;4;0;3006;0;0;0;0;5;0;7667;2;0;0;0;0;0;6;0;5435;2;0;0;0;0;0;7;0;3702;0;0;0;0;8;0;3727;0;0;0;0;9;0;1940;0;0;0;0
22.10.19;19:45:00;1;1189;9733;0;2;0;3558;0;0;0;0;3;0;2155;0;0;0;0;4;0;3006;0;0;0;0;5;0;7667;2;0;0;0;0;0;6;0;5435;2;0;0;0;0;0;7;0;3702;0;0;0;0;8;0;3727;0;0;0;0;9;0;1940;0;0;0;0
22.10.19;19:40:00;1;1282;9629;0;2;0;3558;0;0;0;0;3;0;2155;0;0;0;0;4;0;3006;0;0;0;0;5;0;7667;2;0;0;0;0;0;6;0;5435;2;0;0;0;0;0;7;0;3702;0;0;0;0;8;0;3727;0;0;0;0;9;0;1940;0;0;0;0
22.10.19;19:35:00;1;1161;9522;0;2;0;3558;0;0;0;0;3;0;2155;0;0;0;0;4;0;3006;0;0;0;0;5;0;7667;2;0;0;0;0;0;6;0;5435;2;0;0;0;0;0;7;0;3702;0;0;0;0;8;0;3727;0;0;0;0;9;0;1940;0;0;0;0
22.10.19;19:30:00;1;1093;9427;0;2;0;3558;0;0;0;0;3;0;2155;0;0;0;0;4;0;3006;0;0;0;0;5;0;7667;2;0;0;0;0;0;6;0;5435;2;0;0;0;0;0;7;0;3702;0;0;0;0;8;0;3727;0;0;0;0;9;0;1940;0;0;0;0
22.10.19;19:25:00;1;1164;9335;0;2;0;3558;0;0;0;0;3;0;2155;0;0;0;0;4;0;3006;0;0;0;0;5;0;7667;2;0;0;0;0;0;6;0;5435;2;0;0;0;0;0;7;0;3702;0;0;0;0;8;0;3727;0;0;0;0;9;0;1940;0;0;0;0
22.10.19;19:20:00;1;1232;9237;0;2;0;3558;0;0;0;0;3;0;2155;0;0;0;0;4;0;3006;0;0;0;0;5;0;7667;2;0;0;0;0;0;6;0;5435;2;0;0;0;0;0;7;0;3702;0;0;0;0;8;0;3727;0;0;0;0;9;0;1940;0;0;0;0
22.10.19;19:15:00;1;1213;9134;0;2;0;3558;0;0;0;0;3;0;2155;0;0;0;0;4;0;3006;0;0;0;0;5;0;7667;2;0;0;0;0;0;6;0;5435;2;0;0;0;0;0;7;0;3702;0;0;0;0;8;0;3727;0;0;0;0;9;0;1940;0;0;0;0
22.10.19;19:10:00;1;1124;9033;0;2;0;3558;0;0;0;0;3;0;2155;0;0;0;0;4;0;3006;0;0;0;0;5;0;7667;2;0;0;0;0;0;6;0;5435;2;0;0;0;0;0;7;0;3702;0;0;0;0;8;0;3727;0;0;0;0;9;0;1940;0;0;0;0
22.10.19;19:05:00;1;761;8945;0;2;0;3558;0;0;0;0;3;0;2155;0;0;0;0;4;0;3006;0;0;0;0;5;0;7667;2;0;0;0;0;0;6;0;5435;2;0;0;0;0;0;7;0;3702;0;0;0;0;8;0;3727;0;0;0;0;9;0;1940;0;0;0;0
22.10.19;19:00:00;1;759;8880;0;2;0;3558;0;0;0;0;3;0;2155;0;0;0;0;4;0;3006;0;0;0;0;5;0;7667;2;0;0;0;0;0;6;0;5435;2;0;0;0;0;0;7;0;3702;0;0;0;0;8;0;3727;0;0;0;0;9;0;1940;0;0;0;0
22.10.19;18:55:00;1;728;8817;0;2;0;3558;0;0;0;0;3;0;2155;0;0;0;0;4;0;3006;0;0;0;0;5;0;7667;2;0;0;0;0;0;6;0;5435;2;0;0;0;0;0;7;0;3702;0;0;0;0;8;0;3727;0;0;0;0;9;0;1940;0;0;0;0
22.10.19;18:50:00;1;773;8756;0;2;0;3558;0;0;0;0;3;0;2155;0;0;0;0;4;0;3006;0;0;0;0;5;0;7667;2;0;0;0;0;0;6;0;5435;2;0;0;0;0;0;7;0;3702;0;0;0;0;8;0;3727;0;0;0;0;9;0;1940;0;0;0;0
22.10.19;18:45:00;1;706;8692;0;2;0;3558;0;0;0;0;3;0;2155;0;0;0;0;4;0;3006;0;0;0;0;5;0;7667;2;0;0;0;0;0;6;0;5435;2;0;0;0;0;0;7;0;3702;0;0;0;0;8;0;3727;0;0;0;0;9;0;1940;0;0;0;0
22.10.19;18:40:00;1;832;8633;0;2;0;3558;0;0;0;0;3;0;2155;0;0;0;0;4;0;3006;0;0;0;0;5;0;7667;2;0;0;0;0;0;6;0;5435;2;0;0;0;0;0;7;0;3702;0;0;0;0;8;0;3727;0;0;0;0;9;0;1940;0;0;0;0
22.10.19;18:35:00;1;907;8544;0;2;0;3558;0;0;0;0;3;0;2155;0;0;0;0;4;0;3006;0;0;0;0;5;0;7667;2;0;0;0;0;0;6;0;5435;2;0;0;0;0;0;7;0;3702;0;0;0;0;8;0;3727;0;0;0;0;9;0;1940;0;0;0;0
22.10.19;18:30:00;1;581;8425;0;2;0;3558;0;0;0;0;3;0;2155;0;0;0;0;4;0;3006;0;0;0;0;5;0;7667;2;0;0;0;0;0;6;0;5435;2;0;0;0;0;0;7;0;3702;0;0;0;0;8;0;3727;0;0;0;0;9;0;1940;0;0;0;0
22.10.19;18:25:00;1;705;8375;0;2;0;3558;0;0;0;0;3;0;2155;0;0;0;0;4;0;3006;0;0;0;0;5;0;7667;2;0;0;0;0;0;6;0;5435;2;0;0;0;0;0;7;0;3702;0;0;0;0;8;0;3727;0;0;0;0;9;0;1940;0;0;0;0
22.10.19;18:20:00;1;535;8318;0;2;0;3558;0;0;0;0;3;0;2155;0;0;0;0;4;0;3006;0;0;0;0;5;0;7667;2;0;0;0;0;0;6;0;5435;2;0;0;0;0;0;7;0;3702;0;0;0;0;8;0;3727;0;0;0;0;9;0;1940;0;0;0;0
22.10.19;18:15:00;1;576;8271;0;2;0;3558;0;0;83;6;3;0;2155;0;0;230;17;4;0;3006;0;0;0;0;5;0;7667;2;0;0;0;0;0;6;0;5435;2;0;0;0;0;0;7;0;3702;0;0;0;0;8;0;3727;0;0;0;0;9;0;1940;0;0;0;0
22.10.19;18:10:00;1;1355;8224;0;2;0;3558;6;0;282;18;3;0;2155;6;0;315;21;4;0;3006;2;0;80;19;5;0;7667;2;0;0;0;0;0;6;0;5435;2;0;0;0;0;1;7;0;3702;0;0;0;0;8;0;3727;0;0;0;0;9;0;1940;0;0;0;0
22.10.19;18:05:00;1;584;8144;0;2;0;3558;6;0;302;18;3;0;2155;6;0;354;21;4;0;3006;1;0;98;19;5;0;7667;2;0;2;218;217;24;6;0;5435;0;0;0;0;0;7;7;0;3702;0;0;0;0;8;0;3727;0;0;0;0;9;0;1940;0;0;0;0
22.10.19;18:00:00;1;1057;8077;0;2;0;3558;6;0;328;19;3;0;2155;6;0;404;21;4;0;3006;1;0;131;20;5;0;7667;2;0;0;289;324;24;6;0;5435;23;3;7;418;238;28;7;0;3702;0;0;215;17;8;0;3727;0;0;218;17;9;0;1940;6;0;225;13
22.10.19;17:55:00;1;2416;8022;0;2;0;3558;6;0;355;19;3;0;2155;6;4;410;22;4;0;3006;1;0;168;20;5;0;7667;26;0;0;387;484;30;6;0;5435;23;12;0;181;508;29;7;0;3702;6;0;329;22;8;0;3727;6;0;268;17;9;0;1940;6;0;350;17
22.10.19;17:50:00;1;1361;7897;0;2;0;3558;6;0;372;19;3;0;2155;6;2;452;22;4;0;3006;1;0;188;20;5;10;7667;1;0;1;389;604;30;6;0;5435;23;10;0;197;540;29;7;0;3702;6;0;384;22;8;0;3727;6;0;388;22;9;0;1940;6;0;408;18
22.10.19;17:45:00;1;4336;7763;0;2;0;3558;6;0;382;20;3;2;2155;4;3;460;22;4;0;3006;1;0;213;21;5;9;7666;1;0;3;399;629;30;6;0;5435;23;4;3;402;555;29;7;0;3702;6;1;399;23;8;0;3727;6;0;407;22;9;0;1940;6;0;437;18
22.10.19;17:40:00;1;2408;7357;0;2;0;3558;6;0;393;20;3;3;2155;3;7;452;22;4;0;3006;3;0;207;21;5;45;7666;1;1;9;379;602;31;6;0;5435;8;9;0;368;565;30;7;0;3702;6;1;423;23;8;0;3727;6;1;426;22;9;0;1940;6;0;306;12
22.10.19;17:35:00;1;2338;7151;0;2;0;3558;6;0;400;20;3;1;2155;6;11;456;23;4;0;3006;3;0;212;21;5;81;7661;4;10;25;360;571;31;6;20;5435;1;22;21;527;454;31;7;0;3702;6;6;414;23;8;0;3727;6;2;251;13;9;2;1940;0;3;174;7
22.10.19;17:30:00;1;2457;6973;0;2;0;3558;6;0;405;21;3;0;2155;6;5;496;23;4;0;3006;3;0;199;21;5;94;7655;4;21;31;361;571;31;6;57;5433;4;43;36;432;277;31;7;1;3702;6;4;373;19;8;2;3727;0;4;375;19;9;2;1940;6;3;502;18
22.10.19;17:25:00;1;2441;6767;0;2;0;3558;6;0;410;21;3;3;2155;6;7;496;24;4;4;3006;3;4;199;21;5;113;7647;4;33;42;361;571;32;6;69;5428;4;41;32;432;276;31;7;1;3701;6;7;457;23;8;3;3727;6;7;457;23;9;1;1940;6;5;504;18
22.10.19;17:20:00;1;2362;6567;0;2;5;3558;6;10;405;22;3;2;2154;6;7;507;24;4;8;3005;3;9;199;21;5;130;7637;4;42;47;361;571;32;6;71;5423;4;48;34;432;277;31;7;0;3701;6;0;472;24;8;4;3727;6;7;467;23;9;0;1939;6;4;514;18
22.10.19;17:15:00;1;2396;6366;0;2;35;3557;6;55;369;22;3;0;2154;6;0;517;24;4;17;3004;3;18;198;21;5;150;7626;4;47;59;360;571;32;6;80;5416;4;39;28;432;277;31;7;13;3701;3;20;440;24;8;12;3727;3;21;442;23;9;2;1939;6;6;518;18
22.10.19;17:10:00;1;2443;6167;0;2;58;3554;4;83;360;22;3;11;2154;3;24;487;24;4;26;3003;3;27;198;21;5;172;7613;4;63;68;361;571;32;6;95;5409;4;59;46;432;277;31;7;43;3700;4;70;352;24;8;43;3725;4;74;362;24;9;0;1939;6;0;440;15
22.10.19;17:05:00;1;4303;5948;0;2;59;3550;4;86;358;22;3;12;2153;6;25;482;24;4;27;3001;3;27;198;21;5;177;7599;4;65;71;361;571;32;6;97;5401;4;56;41;432;277;31;7;39;3696;4;73;358;24;8;43;3722;4;75;364;24;9;5;1939;3;9;518;19
22.10.19;17:00:00;1;4232;5590;0;2;71;3545;4;99;366;22;3;7;2152;6;13;516;24;4;40;2998;3;41;198;21;5;201;7584;4;83;84;361;571;32;6;109;5393;4;53;40;432;277;31;7;48;3693;4;84;401;24;8;51;3718;4;78;364;24;9;5;1939;6;9;523;19
22.10.19;16:55:00;1;3396;5240;0;2;91;3539;4;116;356;22;3;27;2152;6;45;447;24;4;55;2995;3;57;198;21;5;230;7567;4;100;95;361;571;32;6;125;5384;4;71;51;432;277;31;7;78;3689;4;109;401;24;8;61;3714;4;88;323;19;9;0;1938;6;0;449;15
22.10.19;16:50:00;1;2197;4986;0;2;109;3531;4;134;361;22;3;57;2149;4;91;460;24;4;70;2990;3;73;198;22;5;263;7547;4;110;115;361;571;32;6;142;5373;4;104;73;432;277;31;7;77;3682;4;116;406;24;8;84;3708;4;120;411;24;9;14;1938;6;21;514;19
22.10.19;16:45:00;1;2201;4803;0;2;117;3522;4;142;356;22;3;61;2144;4;98;481;24;4;74;2984;3;77;198;22;5;271;7525;4;117;117;361;571;32;6;150;5361;4;88;62;432;277;31;7;85;3676;4;114;452;24;8;90;3701;4;125;439;24;9;11;1937;6;15;535;19
22.10.19;16:40:00;1;1470;4623;0;2;106;3512;4;134;361;22;3;60;2139;4;95;455;24;4;74;2978;3;77;198;22;5;266;7503;4;115;112;361;571;32;6;143;5349;4;96;66;432;277;31;7;91;3669;4;128;461;24;8;92;3693;4;128;462;24;9;0;1936;6;0;571;19
22.10.19;16:35:00;1;2283;4523;0;2;107;3503;4;135;354;22;3;59;2134;4;94;458;24;4;61;2972;3;63;198;22;5;264;7480;4;111;114;361;571;32;6;138;5337;4;71;49;432;277;31;7;98;3661;4;128;433;24;8;72;3686;4;102;355;19;9;10;1936;3;15;539;19
22.10.19;16:30:00;1;423;4364;0;2;103;3495;4;130;358;22;3;55;2129;4;87;417;24;4;61;2967;3;64;198;22;5;258;7458;4;112;112;361;571;32;6;138;5325;4;88;62;432;277;31;7;98;3653;4;126;403;24;8;96;3678;4;128;414;24;9;9;1935;6;12;540;20
22.10.19;16:25:00;1;448;4317;0;2;129;3486;4;157;360;22;3;74;2125;4;107;454;24;4;86;2962;3;89;199;22;5;303;7437;4;132;128;361;571;32;6;158;5313;4;101;66;432;276;31;7;116;3645;4;149;436;24;8;120;3670;4;157;422;24;9;26;1934;0;36;415;16
22.10.19;16:20:00;1;219;4238;0;2;133;3475;4;163;367;22;3;76;2119;4;109;451;24;4;97;2955;3;101;208;22;5;317;7411;4;142;131;361;571;32;6;173;5300;4;105;71;432;277;31;7;125;3636;4;160;420;24;8;124;3660;4;162;419;24;9;69;1932;4;93;442;20
22.10.19;16:15:00;1;246;4209;0;2;170;3464;4;198;368;22;3;97;2112;4;134;452;24;4;121;2947;5;126;215;22;5;386;7384;4;176;161;369;571;31;6;207;5286;4;120;83;432;277;31;7;162;3625;4;195;434;24;8;156;3650;4;189;394;24;9;86;1926;4;110;463;20
22.10.19;16:10:00;1;328;4186;0;2;214;3450;4;245;372;22;3;130;2104;4;165;474;24;4;165;2937;5;171;222;22;5;479;7351;4;226;200;393;606;31;6;249;5268;4;148;106;432;277;31;7;192;3612;4;227;439;24;8;194;3637;4;234;430;24;9;106;1919;4;130;470;21
22.10.19;16:05:00;1;315;4159;0;2;213;3432;4;246;371;22;3;131;2093;4;166;488;24;4;169;2923;5;176;220;22;5;490;7311;4;225;211;395;619;32;6;247;5247;4;153;106;432;277;31;7;216;3596;4;250;428;24;8;132;3621;4;155;269;14;9;94;1910;4;117;397;16
22.10.19;16:00:00;1;268;4133;0;2;210;3414;4;241;368;22;3;126;2082;4;161;467;24;4;165;2909;5;172;223;22;5;472;7271;4;217;196;385;600;32;6;241;5226;4;156;107;432;277;31;7;177;3577;4;206;369;20;8;212;3602;4;248;447;24;9;75;1900;4;95;331;14
22.10.19;15:55:00;1;268;4111;0;2;222;3397;4;253;376;22;3;133;2072;4;168;454;24;4;178;2895;5;185;219;22;5;496;7232;4;239;206;396;608;32;6;263;5206;4;157;99;469;277;31;7;212;3560;4;247;430;24;8;220;3585;4;253;430;24;9;114;1891;4;140;494;21
22.10.19;15:50:00;1;269;4088;0;2;269;3378;4;302;376;22;3;164;2061;4;200;476;24;4;220;2880;5;229;224;22;5;578;7190;4;274;252;389;610;32;6;336;5183;4;222;130;561;277;31;7;275;3542;4;312;463;24;8;282;3566;4;321;456;24;9;148;1882;4;179;490;21
22.10.19;15:45:00;1;338;4065;0;2;301;3356;4;338;384;22;3;186;2047;4;225;477;24;4;256;2862;5;267;227;22;5;656;7141;4;318;281;397;615;32;6;374;5155;4;231;130;547;277;31;7;310;3519;4;355;452;24;8;310;3543;4;346;468;24;9;172;1869;4;200;492;21
22.10.19;15:40:00;1;276;4038;0;2;310;3331;4;345;386;22;3;190;2031;4;233;493;24;4;258;2840;5;269;224;22;5;678;7085;4;330;292;398;614;32;6;390;5123;4;249;143;546;277;31;7;351;3493;4;386;463;24;8;353;3517;4;390;460;24;9;186;1855;4;217;495;21
22.10.19;15:35:00;1;203;4015;0;2;327;3305;4;362;386;22;3;199;2015;4;240;496;24;4;270;2819;5;281;229;22;5;702;7028;4;342;301;399;625;32;6;400;5091;4;267;154;546;277;31;7;367;3463;4;400;452;24;8;361;3487;4;400;463;24;9;195;1839;4;226;495;21
22.10.19;15:30:00;1;212;3998;0;2;333;3278;4;369;382;22;3;205;1999;4;245;489;24;4;276;2796;5;287;228;22;5;705;6970;4;346;304;389;628;32;6;389;5057;4;245;146;519;277;31;7;364;3433;4;402;463;24;8;305;3451;0;336;374;20;9;197;1823;4;229;505;21
22.10.19;15:25:00;1;245;3980;0;2;261;3250;4;292;379;22;3;162;1982;4;199;492;24;4;214;2773;5;223;227;22;5;583;6912;4;277;248;397;626;32;6;293;5025;4;183;123;432;277;31;7;299;3403;4;335;465;24;8;307;3426;4;345;458;24;9;168;1806;4;196;492;21
22.10.19;15:20:00;1;302;3960;0;2;186;3228;4;216;366;22;3;108;1968;4;147;488;24;4;141;2755;5;146;215;22;5;407;6865;4;193;178;361;571;32;6;222;5001;4;129;90;432;277;31;7;190;3377;4;228;450;24;8;191;3400;4;231;458;24;9;107;1792;4;134;482;21
22.10.19;15:15:00;1;249;3934;0;2;186;3212;4;215;366;22;3;107;1959;4;144;490;24;4;143;2743;5;149;217;22;5;401;6832;4;190;176;361;571;32;6;217;4983;4;149;103;432;277;31;7;164;3361;4;201;425;24;8;166;3384;4;202;434;24;9;87;1783;4;116;469;21
22.10.19;15:10:00;1;202;3914;0;2;194;3197;4;225;362;22;3;114;1950;4;153;478;24;4;148;2732;5;155;219;22;5;409;6798;4;192;184;361;571;32;6;222;4964;4;121;84;432;277;31;7;181;3348;4;215;454;24;8;88;3370;4;107;224;12;9;101;1776;4;125;484;21
22.10.19;15:05:00;1;204;3897;0;2;174;3181;4;205;368;23;3;100;1941;4;139;479;25;4;128;2719;5;133;217;23;5;379;6764;4;178;168;361;571;32;6;207;4946;4;122;87;432;277;31;7;161;3332;4;190;430;24;8;159;3354;4;191;428;24;9;83;1767;4;111;467;21
22.10.19;15:00:00;1;203;3880;0;2;188;3166;4;217;361;23;3;106;1932;4;146;485;25;4;141;2708;5;147;216;23;5;412;6733;4;191;174;373;600;32;6;249;4929;4;125;120;432;381;31;7;159;3319;4;188;420;25;8;130;3339;0;163;354;20;9;82;1761;4;106;472;21
22.10.19;14:55:00;1;246;3863;0;2;224;3150;4;254;363;23;3;132;1923;4;169;490;25;4;176;2697;5;183;221;23;5;498;6697;4;238;212;386;611;32;6;348;4907;4;159;190;470;532;31;7;184;3306;4;228;428;25;8;188;3328;4;220;450;24;9;103;1754;4;130;484;21
22.10.19;14:50:00;1;222;3842;0;2;277;3132;4;310;374;23;3;167;1912;4;207;485;25;4;223;2682;5;232;222;23;5;602;6655;4;295;259;398;616;32;6;444;4877;4;216;231;553;534;31;7;237;3291;4;279;451;25;8;241;3313;4;279;447;24;9;126;1745;4;157;491;22
22.10.19;14:45:00;1;203;3824;0;2;407;3109;4;446;384;24;3;250;1899;4;296;498;25;4;343;2663;5;357;224;23;5;865;6604;4;419;373;397;639;32;6;641;4839;4;318;330;561;532;31;7;372;3271;4;412;455;25;8;291;3292;4;325;364;19;9;200;1735;4;229;498;22
22.10.19;14:40:00;1;272;3807;0;2;409;3075;4;447;386;24;3;248;1878;4;293;499;25;4;343;2635;5;357;225;23;5;861;6532;4;427;371;395;627;32;6;643;4786;4;319;323;566;545;31;7;361;3240;4;405;456;25;8;376;3262;4;416;450;24;9;201;1718;4;234;504;22
22.10.19;14:35:00;1;294;3784;0;2;478;3041;4;519;389;24;3;297;1857;4;341;498;25;4;411;2607;5;427;232;23;5;1006;6460;4;504;432;407;629;32;6;756;4731;4;366;388;549;546;31;7;462;3211;4;515;450;25;8;479;3231;4;518;460;24;9;255;1702;4;287;507;22
22.10.19;14:30:00;1;340;3759;0;2;498;3001;4;539;386;24;3;311;1833;4;354;493;25;4;426;2573;5;444;230;23;5;1052;6375;4;525;456;400;628;32;6;794;4668;4;406;413;557;544;31;7;500;3172;4;547;456;25;8;507;3191;4;554;460;24;9;272;1680;4;307;506;22
22.10.19;14:25:00;1;293;3731;0;2;542;2960;4;584;391;24;3;337;1807;4;382;487;26;4;473;2537;5;492;233;23;5;1154;6287;4;583;499;402;630;32;6;872;4601;4;430;428;564;543;31;7;624;3131;4;655;458;25;8;613;3149;4;657;463;24;9;325;1658;4;364;500;22
22.10.19;14:20:00;1;235;3706;0;2;655;2915;4;699;392;24;3;411;1779;4;460;488;26;4;566;2498;5;590;233;23;5;1360;6188;4;687;588;408;642;32;6;1027;4527;4;499;513;574;550;31;7;679;3079;4;728;455;25;8;463;3098;4;494;301;16;9;370;1631;4;410;505;22
22.10.19;14:15:00;1;204;3686;0;2;591;2860;4;632;386;24;3;369;1744;4;418;491;25;4;507;2451;5;528;233;23;5;1228;6076;4;613;530;407;651;32;6;933;4442;4;471;479;563;545;31;7;626;3022;4;670;457;25;8;628;3040;4;680;463;24;9;337;1600;4;377;509;22
22.10.19;14:10:00;1;204;3669;0;2;557;2811;4;600;387;24;3;346;1714;4;395;488;25;4;489;2409;5;509;231;23;5;1210;5974;4;606;522;404;635;32;6;917;4365;4;459;468;569;547;31;7;601;2970;4;646;463;25;8;611;2987;4;656;450;24;9;263;1572;4;292;402;17